Prescott, AZ

10:06 PM MST on November 18, 2019 (GMT -0700)
Love

Weather History for KPRC - June, 2019

Change the Weather History Date:

Monday, June 3, 2019

  Actual Average Record
Temperature  
Mean Temperature 64 °F 67 °F  
Max Temperature 81 °F 83 °F 97 °F (1996)
Min Temperature 48 °F 51 °F 37 °F (1971)
Degree Days  
Heating Degree Days 0    
Month to date heating degree days 2  
Since 1 July heating degree days 4330  
Cooling Degree Days 0    
Month to date cooling degree days 1  
Year to date cooling degree days 2  
Growing Degree Days 14 (Base 50)    
Moisture  
Dew Point 34 °F    
Average Humidity 33    
Maximum Humidity 56    
Minimum Humidity 19    
Precipitation  
Precipitation 0.00 in 0.01 in 0.70 in (1986)
Month to date precipitation 0.00 0.03  
Year to date precipitation 6.68 4.57  
Sea Level Pressure  
Sea Level Pressure 29.80 in    
Wind  
Wind Speed 6 mph ()    
Max Wind Speed 16 mph    
Max Gust Speed 20 mph    
Visibility 9.8 miles    
Events      
T = Trace of Precipitation, MM = Missing Value Source: Averaged Metar Reports

Daily Weather History Graph

Daily Weather History Graph

Search for Another Location

Airport or City:

Astronomy

Jun. 03, 2019 Rise Set
Actual Time 5:17 AM MST 7:38 PM MST
Civil Twilight 4:48 AM MST 8:07 PM MST
Nautical Twilight 4:12 AM MST 8:43 PM MST
Astronomical Twilight 3:33 AM MST 9:22 PM MST
Moon 5:38 AM MST (6/3) 8:08 PM MST (6/3)
Length of Visible Light 15h 19m
Length of Day
14h 21m
New Moon, 0% of the Moon is Illuminated
Jun 3
New Moon
Jun 9
First Quarter
Jun 17
Full
Jun 25
Last Quarter
Jul 2
New

Hourly Weather History & Observations

Time (MST) Temp. Dew Point Humidity Pressure Visibility Wind Dir Wind Speed Gust Speed Precip Events Conditions
12:53 AM 54.0 °F 34.0 °F 47% 29.81 in 9.0 mi South 3.5 mph - N/A   Clear
1:53 AM 52.0 °F 33.1 °F 49% 29.80 in 8.0 mi SSW 5.8 mph - N/A   Clear
2:53 AM 51.1 °F 33.1 °F 50% 29.79 in 9.0 mi SSW 9.2 mph - N/A   Clear
3:53 AM 50.0 °F 32.0 °F 50% 29.81 in 9.0 mi SSW 5.8 mph - N/A   Partly Cloudy
4:53 AM 48.9 °F 33.1 °F 54% 29.81 in 10.0 mi South 4.6 mph - N/A   Scattered Clouds
5:53 AM 52.0 °F 33.1 °F 49% 29.82 in 10.0 mi South 9.2 mph - N/A   Partly Cloudy
6:53 AM 57.0 °F 32.0 °F 39% 29.83 in 10.0 mi Calm Calm - N/A   Clear
7:53 AM 64.0 °F 33.1 °F 31% 29.83 in 10.0 mi NNW 4.6 mph - N/A   Clear
8:53 AM 69.1 °F 32.0 °F 25% 29.83 in 10.0 mi WNW 3.5 mph - N/A   Clear
9:53 AM 73.9 °F 34.0 °F 23% 29.83 in 10.0 mi Variable 4.6 mph - N/A   Scattered Clouds
10:53 AM 75.0 °F 34.0 °F 22% 29.82 in 10.0 mi East 10.4 mph - N/A   Scattered Clouds
12:53 PM 79.0 °F 33.1 °F 19% 29.81 in 10.0 mi ESE 8.1 mph - N/A   Scattered Clouds
1:53 PM 78.1 °F 32.0 °F 19% 29.80 in 10.0 mi ESE 11.5 mph - N/A   Scattered Clouds
2:53 PM 77.0 °F 33.1 °F 20% 29.79 in 10.0 mi South 4.6 mph - N/A   Scattered Clouds
3:53 PM 79.0 °F 36.0 °F 21% 29.77 in 10.0 mi SW 6.9 mph - N/A   Scattered Clouds
4:53 PM 81.0 °F 35.1 °F 19% 29.76 in 10.0 mi WSW 8.1 mph - N/A   Overcast
5:53 PM 75.9 °F 35.1 °F 23% 29.77 in 10.0 mi SW 4.6 mph - N/A   Mostly Cloudy
6:53 PM 75.9 °F 35.1 °F 23% 29.76 in 10.0 mi SW 8.1 mph - N/A   Scattered Clouds
7:53 PM 70.0 °F 35.1 °F 28% 29.77 in 10.0 mi SW 8.1 mph - N/A   Clear
8:53 PM 66.0 °F 34.0 °F 30% 29.78 in 10.0 mi SSW 9.2 mph - N/A   Clear
9:53 PM 63.0 °F 34.0 °F 34% 29.80 in 10.0 mi South 9.2 mph - N/A   Clear
10:53 PM 61.0 °F 34.0 °F 36% 29.81 in 10.0 mi SSW 9.2 mph - N/A   Clear
11:53 PM 59.0 °F 37.0 °F 44% 29.81 in 10.0 mi South 5.8 mph - N/A   Clear